CW2274 Weather Reports


time (UTC)temp
C
wind
direction
speed
KPH
gust
KPH
rain 1hr
cm
rain 24hr
cm
rain mn
cm
humidity
%
barometer
mb
20260510134013 21 132 4.8 8.0 0.00 0.00 0.00 26 1014.9
20260510133529 21 164 3.2 4.8 0.00 0.00 0.00 26 1014.8
20260510133028 21 198 3.2 4.8 0.00 0.00 0.00 27 1014.7
20260510132524 21 210 1.6 4.8 0.00 0.00 0.00 27 1014.6
20260510132020 20 211 1.6 4.8 0.00 0.00 0.00 26 1014.7
20260510131516 20 211 0.0 3.2 0.00 0.00 0.00 27 1014.6
20260510131031 20 164 0.0 3.2 0.00 0.00 0.00 28 1014.5
20260510130527 20 164 0.0 4.8 0.00 0.00 0.00 27 1014.5
20260510130034 19 164 3.2 6.4 0.00 0.00 0.00 28 1014.4
20260510125519 19 164 4.8 6.4 0.00 0.00 0.00 28 1014.3
20260510125015 19 159 1.6 4.8 0.00 0.00 0.00 28 1014.3
20260510124531 18 159 3.2 4.8 0.00 0.00 0.00 28 1014.3
20260510124027 19 159 3.2 4.8 0.00 0.00 0.00 28 1014.2
20260510123522 19 159 3.2 4.8 0.00 0.00 0.00 27 1014.0
20260510123018 19 164 0.0 4.8 0.00 0.00 0.00 27 1014.0
20260510122514 20 164 1.6 6.4 0.00 0.00 0.00 26 1014.0
20260510122013 20 164 1.6 8.0 0.00 0.00 0.00 26 1013.9
20260510121529 20 185 4.8 9.7 0.00 0.00 0.00 25 1013.8
20260510121025 20 191 3.2 9.7 0.00 0.00 0.00 25 1013.9
20260510120521 20 209 1.6 4.8 0.00 0.00 0.00 25 1013.9
20260510120028 20 209 1.6 4.8 0.00 0.00 0.00 25 1013.8
20260510115529 21 209 3.2 4.8 0.00 0.00 0.00 24 1013.8
20260510115025 21 210 1.6 4.8 0.00 0.00 0.00 24 1013.7
20260510114521 20 210 1.6 6.4 0.00 0.00 0.00 24 1013.6
20260510114020 20 210 3.2 6.4 0.00 0.00 0.00 25 1013.6
20260510113517 20 211 0.0 3.2 0.00 0.00 0.00 26 1013.5
20260510113013 19 211 0.0 4.8 0.00 0.00 0.00 27 1013.5
20260510112528 20 211 3.2 4.8 0.00 0.00 0.00 26 1013.3
20260510112024 20 212 3.2 4.8 0.00 0.00 0.00 26 1013.4
20260510111520 20 212 0.0 0.0 0.00 0.00 0.00 25 1013.4
20260510111017 20 211 0.0 3.2 0.00 0.00 0.00 26 1013.3
20260510110516 20 211 1.6 3.2 0.00 0.00 0.00 25 1013.3
20260510110045 20 212 1.6 3.2 0.00 0.00 0.00 24 1013.3
20260510105526 20 212 1.6 3.2 0.00 0.00 0.00 24 1013.3
20260510105022 21 211 0.0 3.2 0.00 0.00 0.00 23 1013.4
20260510104518 21 211 0.0 3.2 0.00 0.00 0.00 22 1013.3
20260510104014 21 211 0.0 3.2 0.00 0.00 0.00 22 1013.4
20260510103529 22 211 1.6 4.8 0.00 0.00 0.00 21 1013.4
20260510103029 22 212 3.2 4.8 0.00 0.00 0.00 21 1013.4
20260510102526 22 211 3.2 4.8 0.00 0.00 0.00 21 1013.4
20260510102022 22 210 3.2 4.8 0.00 0.00 0.00 21 1013.4
20260510101517 22 210 3.2 4.8 0.00 0.00 0.00 21 1013.4
20260510101013 22 208 3.2 4.8 0.00 0.00 0.00 21 1013.3
20260510100529 22 208 3.2 4.8 0.00 0.00 0.00 21 1013.4
20260510100036 22 208 1.6 4.8 0.00 0.00 0.00 21 1013.4
20260510095521 22 208 3.2 4.8 0.00 0.00 0.00 21 1013.4
20260510095017 22 208 3.2 4.8 0.00 0.00 0.00 21 1013.3
20260510094512 22 208 3.2 4.8 0.00 0.00 0.00 20 1013.3
20260510094028 23 208 1.6 4.8 0.00 0.00 0.00 20 1013.3
20260510093524 23 208 3.2 4.8 0.00 0.00 0.00 20 1013.3
20260510093021 23 207 1.6 6.4 0.00 0.00 0.00 19 1013.2
20260510092517 24 207 3.2 6.4 0.00 0.00 0.00 18 1013.3
20260510092017 25 207 4.8 8.0 0.00 0.00 0.00 18 1013.2
20260510091513 24 204 4.8 6.4 0.00 0.00 0.00 18 1013.3
20260510091029 24 198 4.8 8.0 0.00 0.00 0.00 18 1013.2
20260510090525 25 196 4.8 8.0 0.00 0.00 0.00 18 1013.3
20260510090032 25 196 4.8 6.4 0.00 0.00 0.00 17 1013.2
20260510085513 25 144 3.2 6.4 0.00 0.00 0.00 18 1013.2
20260510085029 25 144 1.6 6.4 0.00 0.00 0.00 17 1013.2
20260510084524 25 136 4.8 6.4 0.00 0.00 0.00 17 1013.2
20260510084025 25 109 4.8 6.4 0.00 0.00 0.00 17 1013.2
20260510083521 25 104 4.8 6.4 0.00 0.00 0.00 17 1013.0
20260510083017 25 81 3.2 4.8 0.00 0.00 0.00 18 1013.1
20260510082512 25 58 3.2 4.8 0.00 0.00 0.00 18 1013.1
20260510082028 25 58 3.2 4.8 0.00 0.00 0.00 18 1013.1
20260510081523 25 58 3.2 4.8 0.00 0.00 0.00 18 1013.0
20260510081019 24 58 3.2 4.8 0.00 0.00 0.00 18 1013.0
20260510080519 25 58 1.6 4.8 0.00 0.00 0.00 17 1013.1
20260510080027 25 58 1.6 4.8 0.00 0.00 0.00 17 1013.1
20260510075528 25 58 0.0 6.4 0.00 0.00 0.00 17 1013.2
20260510075023 26 58 3.2 8.0 0.00 0.00 0.00 16 1013.1
20260510074519 26 54 3.2 6.4 0.00 0.00 0.00 16 1013.1
20260510074015 26 329 3.2 4.8 0.00 0.00 0.00 15 1013.1
20260510073530 27 328 1.6 4.8 0.00 0.00 0.00 14 1013.1
20260510073030 28 298 0.0 11.3 0.00 0.00 0.00 13 1013.0
20260510072526 28 290 4.8 11.3 0.00 0.00 0.00 12 1012.9
20260510072021 28 292 4.8 16.1 0.00 0.00 0.00 12 1012.9
20260510071517 29 281 8.0 16.1 0.00 0.00 0.00 12 1012.9
20260510071013 29 297 6.4 16.1 0.00 0.00 0.00 12 1013.0
20260510070529 29 275 6.4 16.1 0.00 0.00 0.00 12 1013.0
20260510070036 29 282 9.7 22.5 0.00 0.00 0.00 12 1012.9
20260510065521 29 277 11.3 22.5 0.00 0.00 0.00 12 1012.9
20260510065017 29 276 11.3 22.5 0.00 0.00 0.00 12 1012.9
20260510064513 29 262 11.3 33.8 0.00 0.00 0.00 12 1013.0
20260510064028 29 268 11.3 33.8 0.00 0.00 0.00 12 1012.9
20260510063524 29 275 11.3 24.1 0.00 0.00 0.00 12 1012.9
20260510063020 29 239 14.5 29.0 0.00 0.00 0.00 12 1012.8
20260510062516 30 260 11.3 29.0 0.00 0.00 0.00 12 1012.8
20260510062015 30 277 16.1 25.7 0.00 0.00 0.00 12 1012.7
20260510061511 29 286 12.9 24.1 0.00 0.00 0.00 12 1012.6
20260510061027 29 269 12.9 25.7 0.00 0.00 0.00 12 1012.6
20260510060523 30 273 14.5 25.7 0.00 0.00 0.00 12 1012.7
20260510060031 30 258 9.7 20.9 0.00 0.00 0.00 12 1012.6
20260510055512 29 263 9.7 20.9 0.00 0.00 0.00 12 1012.4
20260510055027 29 279 8.0 17.7 0.00 0.00 0.00 12 1012.4
20260510054523 29 295 6.4 16.1 0.00 0.00 0.00 12 1012.4
20260510054022 29 275 8.0 16.1 0.00 0.00 0.00 12 1012.4
20260510053518 28 287 4.8 9.7 0.00 0.00 0.00 14 1012.3
20260510053014 27 289 4.8 8.0 0.00 0.00 0.00 14 1012.4
20260510052529 27 287 3.2 6.4 0.00 0.00 0.00 15 1012.1
20260510052025 27 287 3.2 6.4 0.00 0.00 0.00 15 1012.1
20260510051520 27 287 3.2 6.4 0.00 0.00 0.00 15 1012.0
20260510051016 27 287 3.2 6.4 0.00 0.00 0.00 15 1012.0
20260510050516 27 287 3.2 6.4 0.00 0.00 0.00 15 1012.0
20260510050043 28 287 3.2 6.4 0.00 0.00 0.00 14 1011.9
20260510045523 28 287 3.2 9.7 0.00 0.00 0.00 14 1011.9
20260510045018 28 287 4.8 9.7 0.00 0.00 0.00 14 1011.9
20260510044514 29 287 4.8 11.3 0.00 0.00 0.00 14 1011.8
20260510044030 28 282 4.8 11.3 0.00 0.00 0.00 14 1011.7
20260510043526 28 279 4.8 9.7 0.00 0.00 0.00 14 1011.8
20260510043026 28 279 6.4 9.7 0.00 0.00 0.00 14 1011.6
20260510042522 29 283 4.8 6.4 0.00 0.00 0.00 13 1011.6
20260510042018 28 282 3.2 6.4 0.00 0.00 0.00 13 1011.4
20260510041514 29 281 3.2 6.4 0.00 0.00 0.00 13 1011.4
20260510041029 29 281 3.2 6.4 0.00 0.00 0.00 13 1011.3
20260510040525 28 282 4.8 9.7 0.00 0.00 0.00 13 1011.3
20260510040033 29 282 4.8 9.7 0.00 0.00 0.00 13 1011.3
20260510035519 29 284 4.8 6.4 0.00 0.00 0.00 13 1011.1
20260510035014 29 283 3.2 6.4 0.00 0.00 0.00 13 1011.2
20260510034530 30 283 4.8 6.4 0.00 0.00 0.00 12 1011.1
20260510034026 30 283 4.8 6.4 0.00 0.00 0.00 12 1011.0
20260510033521 30 285 4.8 9.7 0.00 0.00 0.00 12 1011.0
20260510033017 30 283 4.8 9.7 0.00 0.00 0.00 12 1010.9
20260510032533 30 287 4.8 11.3 0.00 0.00 0.00 12 1010.8
20260510032028 30 289 4.8 11.3 0.00 0.00 0.00 12 1010.7
20260510031528 30 315 4.8 9.7 0.00 0.00 0.00 12 1010.5
20260510031024 29 329 3.2 8.0 0.00 0.00 0.00 13 1010.6
20260510030519 29 329 4.8 8.0 0.00 0.00 0.00 13 1010.4
20260510030046 29 331 4.8 8.0 0.00 0.00 0.00 13 1010.3
20260510025528 30 331 3.2 4.8 0.00 0.00 0.00 13 1010.3
20260510025024 30 331 3.2 4.8 0.00 0.00 0.00 12 1010.2
20260510024519 30 331 3.2 4.8 0.00 0.00 0.00 12 1010.1
20260510024019 31 331 4.8 4.8 0.00 0.00 0.00 11 1010.1
20260510023515 31 331 1.6 4.8 0.00 0.00 0.00 11 1010.0
20260510023030 31 331 3.2 4.8 0.00 0.00 0.00 11 1010.0
20260510022527 32 331 1.6 3.2 0.00 0.00 0.00 11 1009.9
20260510022023 32 331 1.6 3.2 0.00 0.00 0.00 10 1009.9
20260510021519 32 331 1.6 4.8 0.00 0.00 0.00 10 1009.9
20260510021014 32 331 1.6 8.0 0.00 0.00 0.00 10 1009.8
20260510020514 33 327 3.2 8.0 0.00 0.00 0.00 10 1009.9
20260510020042 33 324 1.6 8.0 0.00 0.00 0.00 10 1009.6
20260510015523 33 329 1.6 8.0 0.00 0.00 0.00 10 1009.6
20260510015019 33 329 3.2 17.7 0.00 0.00 0.00 10 1009.6
20260510014515 33 17 4.8 17.7 0.00 0.00 0.00 9 1009.6
20260510014031 33 322 1.6 8.0 0.00 0.00 0.00 9 1009.6
20260510013526 34 295 4.8 8.0 0.00 0.00 0.00 9 1009.6
20260510013026 34 303 1.6 6.4 0.00 0.00 0.00 9 1009.6
20260510012522 34 302 3.2 9.7 0.00 0.00 0.00 9 1009.6
20260510012017 34 310 3.2 11.3 0.00 0.00 0.00 9 1009.7
20260510011513 34 358 3.2 14.5 0.00 0.00 0.00 9 1009.6
20260510011029 35 340 3.2 14.5 0.00 0.00 0.00 9 1009.6
20260510010526 35 346 3.2 16.1 0.00 0.00 0.00 9 1009.6
20260510010033 35 316 3.2 16.1 0.00 0.00 0.00 9 1009.5
20260510005518 35 288 6.4 12.9 0.00 0.00 0.00 9 1009.6
20260510005014 35 288 3.2 9.7 0.00 0.00 0.00 8 1009.6
20260510004530 35 346 3.2 8.0 0.00 0.00 0.00 8 1009.6
20260510004026 36 303 3.2 14.5 0.00 0.00 0.00 8 1009.5
20260510003522 36 279 6.4 14.5 0.00 0.00 0.00 8 1009.6
20260510003018 36 293 4.8 11.3 0.00 0.00 0.00 8 1009.6
20260510002514 35 352 4.8 14.5 0.00 0.00 0.00 9 1009.6
20260510002013 35 293 4.8 14.5 0.00 0.00 0.00 9 1009.7
20260510001530 35 3 6.4 12.9 0.00 0.00 0.00 9 1009.7
20260510001026 36 317 4.8 11.3 0.00 0.00 0.00 9 1009.6
20260510000522 36 294 6.4 20.9 0.00 0.00 0.00 8 1009.7
20260510000029 36 298 6.4 20.9 0.00 0.00 0.00 8 1009.7
20260509235530 36 265 8.0 19.3 0.00 0.00 0.00 8 1009.7
20260509235026 37 266 6.4 19.3 0.00 0.00 0.00 8 1009.9
20260509234522 36 300 3.2 11.3 0.00 0.00 0.00 9 1009.8
20260509234022 36 245 3.2 14.5 0.00 0.00 0.00 8 1009.8
20260509233517 36 275 8.0 14.5 0.00 0.00 0.00 8 1009.9
20260509233013 36 4 4.8 12.9 0.00 0.00 0.00 9 1010.0
20260509232529 36 36 4.8 16.1 0.00 0.00 0.00 8 1010.0
20260509232024 36 359 4.8 16.1 0.00 0.00 0.00 8 1010.0
20260509231519 36 323 3.2 11.3 0.00 0.00 0.00 9 1010.1
20260509231016 36 11 3.2 9.7 0.00 0.00 0.00 8 1010.1
20260509230516 37 273 4.8 17.7 0.00 0.00 0.00 8 1010.3
20260509230043 37 271 8.0 17.7 0.00 0.00 0.00 8 1010.3
20260509225524 37 260 8.0 22.5 0.00 0.00 0.00 8 1010.3
20260509225019 37 277 12.9 20.9 0.00 0.00 0.00 8 1010.4
20260509224516 37 324 6.4 19.3 0.00 0.00 0.00 8 1010.5
20260509224032 37 290 8.0 19.3 0.00 0.00 0.00 8 1010.5
20260509223528 37 271 6.4 14.5 0.00 0.00 0.00 9 1010.6
20260509223027 37 339 4.8 11.3 0.00 0.00 0.00 9 1010.6
20260509222523 36 339 3.2 17.7 0.00 0.00 0.00 9 1010.6
20260509222019 36 356 4.8 17.7 0.00 0.00 0.00 9 1010.8
20260509221515 37 309 3.2 11.3 0.00 0.00 0.00 9 1010.7
20260509221031 37 76 4.8 17.7 0.00 0.00 0.00 8 1010.9
20260509220526 37 270 3.2 20.9 0.00 0.00 0.00 9 1010.9
20260509220035 37 291 11.3 19.3 0.00 0.00 0.00 9 1011.1
20260509215520 36 294 4.8 17.7 0.00 0.00 0.00 9 1011.1
20260509215016 35 113 1.6 17.7 0.00 0.00 0.00 9 1011.2
20260509214531 36 65 8.0 17.7 0.00 0.00 0.00 9 1011.3
20260509214027 37 289 8.0 19.3 0.00 0.00 0.00 9 1011.4
20260509213523 37 294 9.7 19.3 0.00 0.00 0.00 9 1011.4
20260509213020 37 11 4.8 12.9 0.00 0.00 0.00 9 1011.4
20260509212516 37 349 4.8 12.9 0.00 0.00 0.00 9 1011.6
20260509212016 37 320 6.4 14.5 0.00 0.00 0.00 9 1011.6
20260509211531 37 292 6.4 14.5 0.00 0.00 0.00 9 1011.8
20260509211028 36 313 6.4 12.9 0.00 0.00 0.00 9 1012.0
20260509210524 36 353 4.8 12.9 0.00 0.00 0.00 9 1012.0
20260509210031 37 6 3.2 12.9 0.00 0.00 0.00 9 1012.1
20260509205513 37 353 4.8 16.1 0.00 0.00 0.00 9 1012.2
20260509205029 36 285 3.2 16.1 0.00 0.00 0.00 9 1012.1
20260509204524 36 38 3.2 16.1 0.00 0.00 0.00 9 1012.2
20260509204025 36 11 8.0 16.1 0.00 0.00 0.00 9 1012.4
20260509203520 36 71 4.8 14.5 0.00 0.00 0.00 9 1012.4
20260509203016 36 12 6.4 14.5 0.00 0.00 0.00 9 1012.6
20260509202532 36 279 3.2 14.5 0.00 0.00 0.00 9 1012.8
20260509202028 37 320 8.0 16.1 0.00 0.00 0.00 9 1012.7
20260509201524 36 280 6.4 16.1 0.00 0.00 0.00 9 1012.7
20260509201019 37 289 6.4 16.1 0.00 0.00 0.00 9 1012.9
20260509200519 37 229 3.2 19.3 0.00 0.00 0.00 9 1013.0
20260509200047 37 260 6.4 17.7 0.00 0.00 0.00 9 1013.1
20260509195528 37 253 4.8 14.5 0.00 0.00 0.00 9 1013.1
20260509195024 37 275 6.4 24.1 0.00 0.00 0.00 9 1013.0
20260509194520 36 309 8.0 24.1 0.00 0.00 0.00 9 1013.1
20260509194016 36 356 4.8 16.1 0.00 0.00 0.00 9 1013.2
20260509193532 37 257 4.8 17.7 0.00 0.00 0.00 10 1013.3
20260509193031 36 279 6.4 17.7 0.00 0.00 0.00 10 1013.2
20260509192527 36 267 6.4 16.1 0.00 0.00 0.00 10 1013.3
20260509192023 36 303 8.0 12.9 0.00 0.00 0.00 10 1013.4
20260509191519 35 355 4.8 16.1 0.00 0.00 0.00 10 1013.4
20260509191015 35 33 8.0 17.7 0.00 0.00 0.00 10 1013.3
20260509190531 36 350 4.8 8.0 0.00 0.00 0.00 10 1013.4
20260509190038 36 331 3.2 17.7 0.00 0.00 0.00 11 1013.5
20260509185523 36 360 6.4 17.7 0.00 0.00 0.00 10 1013.6
20260509185019 36 258 4.8 14.5 0.00 0.00 0.00 11 1013.7
20260509184515 36 271 8.0 14.5 0.00 0.00 0.00 10 1013.8
20260509184031 35 281 1.6 14.5 0.00 0.00 0.00 11 1013.8
20260509183526 36 271 6.4 12.9 0.00 0.00 0.00 10 1013.8
20260509183022 35 345 4.8 12.9 0.00 0.00 0.00 11 1013.8
20260509182518 35 306 3.2 12.9 0.00 0.00 0.00 11 1014.0
20260509182018 35 267 3.2 9.7 0.00 0.00 0.00 11 1014.1
20260509181514 33 38 6.4 9.7 0.00 0.00 0.00 11 1014.2
20260509181030 34 349 3.2 12.9 0.00 0.00 0.00 12 1014.3
20260509180526 33 350 3.2 12.9 0.00 0.00 0.00 12 1014.4
20260509180033 34 15 3.2 8.0 0.00 0.00 0.00 11 1014.4
20260509175514 33 308 1.6 9.7 0.00 0.00 0.00 12 1014.5
20260509175030 32 13 4.8 11.3 0.00 0.00 0.00 13 1014.7
20260509174526 32 44 4.8 11.3 0.00 0.00 0.00 13 1014.7
20260509174026 33 354 4.8 16.1 0.00 0.00 0.00 13 1014.7
20260509173522 33 21 6.4 16.1 0.00 0.00 0.00 13 1014.6
20260509173018 33 320 1.6 9.7 0.00 0.00 0.00 13 1014.6
20260509172513 33 305 3.2 9.7 0.00 0.00 0.00 14 1014.7
20260509172029 32 358 4.8 9.7 0.00 0.00 0.00 14 1014.7
20260509171525 32 351 0.0 14.5 0.00 0.00 0.00 15 1014.8
20260509171022 32 351 4.8 14.5 0.00 0.00 0.00 14 1014.8
20260509170522 32 332 3.2 6.4 0.00 0.00 0.00 15 1014.8
20260509170029 32 23 1.6 11.3 0.00 0.00 0.00 15 1014.7
20260509165530 31 25 1.6 11.3 0.00 0.00 0.00 16 1014.8
20260509165026 32 15 1.6 6.4 0.00 0.00 0.00 16 1014.9
20260509164522 31 15 3.2 12.9 0.00 0.00 0.00 16 1014.9
20260509164018 30 23 4.8 12.9 0.00 0.00 0.00 17 1014.9
20260509163514 31 319 1.6 4.8 0.00 0.00 0.00 18 1014.9
20260509163015 30 334 1.6 4.8 0.00 0.00 0.00 18 1015.0
20260509162531 30 46 1.6 4.8 0.00 0.00 0.00 19 1015.1
20260509162027 30 33 0.0 4.8 0.00 0.00 0.00 20 1015.1
20260509161523 29 33 3.2 6.4 0.00 0.00 0.00 19 1015.0
20260509161018 29 7 3.2 6.4 0.00 0.00 0.00 19 1015.1
20260509160514 28 102 3.2 4.8 0.00 0.00 0.00 21 1015.0
20260509160042 28 102 3.2 8.0 0.00 0.00 0.00 21 1015.0
20260509155528 28 104 1.6 6.4 0.00 0.00 0.00 22 1015.1
20260509155023 27 111 3.2 6.4 0.00 0.00 0.00 23 1015.1
20260509154519 27 112 3.2 6.4 0.00 0.00 0.00 23 1015.1
20260509154015 26 94 3.2 8.0 0.00 0.00 0.00 24 1015.2
20260509153531 26 102 3.2 8.0 0.00 0.00 0.00 24 1015.1
20260509153027 25 135 1.6 11.3 0.00 0.00 0.00 25 1015.1
20260509152524 26 92 4.8 11.3 0.00 0.00 0.00 26 1015.1
20260509152024 25 99 4.8 11.3 0.00 0.00 0.00 26 1015.1
20260509151519 25 94 4.8 8.0 0.00 0.00 0.00 26 1015.1
20260509151015 25 112 3.2 8.0 0.00 0.00 0.00 27 1015.1
20260509150531 24 119 0.0 4.8 0.00 0.00 0.00 27 1015.1
20260509150038 23 119 3.2 6.4 0.00 0.00 0.00 28 1015.1
20260509145520 23 119 3.2 6.4 0.00 0.00 0.00 28 1015.1
20260509145015 23 118 4.8 6.4 0.00 0.00 0.00 28 1015.1
20260509144515 22 137 1.6 6.4 0.00 0.00 0.00 29 1015.1
20260509144031 22 134 4.8 6.4 0.00 0.00 0.00 29 1015.1
20260509143527 22 138 4.8 6.4 0.00 0.00 0.00 30 1015.1
20260509143023 22 139 3.2 6.4 0.00 0.00 0.00 30 1015.0
20260509142519 22 135 3.2 9.7 0.00 0.00 0.00 30 1015.0
20260509142015 21 118 4.8 8.0 0.00 0.00 0.00 31 1014.9
20260509141531 21 122 4.8 9.7 0.00 0.00 0.00 31 1014.9
20260509141027 21 125 3.2 9.7 0.00 0.00 0.00 31 1014.9
20260509140527 21 111 6.4 9.7 0.00 0.00 0.00 32 1014.9
20260509140034 21 116 4.8 8.0 0.00 0.00 0.00 32 1014.9
20260509135516 20 123 3.2 8.0 0.00 0.00 0.00 33 1014.7
20260509135031 20 120 6.4 8.0 0.00 0.00 0.00 33 1014.8
20260509134527 20 123 4.8 8.0 0.00 0.00 0.00 33 1014.7